map of CJA home
Great Circle Mapper logo
CJA - Airport
Location
City:  Cajamarca, Cajamarca, Perú
Name:Major General FAP Armando Revoredo Iglesias
ICAO / IATA:SPJR / CJA

Details
Type:Airport (Aerodrome, Airfield)
Use:Public/Civil
Latitude:7°08'21"S (-7.139146)
Longitude:78°29'22"W (-78.489582)
Elevation:8848 ft (2697 m)
Variation:1.65°W (WMM2015 magnetic declination)
-0.16° annual change
Runways:1
Longest:8202 × 148 ft (2500 × 45 m), paved

Time
Time Zone:UTC-5
Local Time:

Weather
METAR:SPJR 292300Z 05008KT CAVOK 18/06 Q1027 RMK PP000
TAF:SPJR 291700Z 2918/3018 14008KT 9999 SCT030 BKN043 TX23/2919Z TN05/3011Z
TEMPO 2920/2922 SCT030 SCT080
FM292300 VRB02KT 9999 SCT050

Related Locations
Nearby:
Farthest:PAN: 12426 mi / 19997 km
Pattani, TH

Find:

   beyond  
but within

Other Information
Maps:
NOTAMs:
Links:
Sources:

  
flag of Perú
flag of Cajamarca
  

Sectional Chart

Flight Planning
at skyvector.com

Satellite Image

Google Maps Satellite view

 

Copyright © 2004-2015 Karl L. Swartz. All rights reserved.
The Great Circle Mapper name and logo are trademarks of the Great Circle Mapper.
All other trademarks mentioned herein belong to their respective owners.
Please see credits for attibutions and further copyright information.

  Follow gcmap on Facebook Follow gcmap on Twitter Follow gcmap on Google+

hCard Microformat

Geo Microformat